This is the latest recevied weather packets stored in our database for station/object IT9CNT. If no packets are shown the sender has not sent any weather packets the latest 10 day(s).
| Time | Temp. | Humidity | Pressure | Rain* | Wind** | Luminosity | Snow |
|---|---|---|---|---|---|---|---|
| 1777546983 | 25° C | 67% | 1012.1 hPa | 0 mm | - | - | - |
| 1777546923 | 24.44° C | 67% | 1011.7 hPa | 0 mm | - | - | - |
| 1777546863 | 23.33° C | 66% | 1011.8 hPa | 0 mm | - | - | - |
| 1777546803 | 23.33° C | 65% | 1011.8 hPa | 0 mm | - | - | - |
| 1777546743 | 23.33° C | 67% | 1011.9 hPa | 0 mm | - | - | - |
| 1777546683 | 23.33° C | 66% | 1011.9 hPa | 0 mm | - | - | - |
| 1777546623 | 23.33° C | 65% | 1011.8 hPa | 0 mm | - | - | - |
| 1777546563 | 23.33° C | 65% | 1011.9 hPa | 0 mm | - | - | - |
| 1777546503 | 23.89° C | 66% | 1011.9 hPa | 0 mm | - | - | - |
| 1777546443 | 23.33° C | 66% | 1012.1 hPa | 0 mm | - | - | - |
| 1777546383 | 23.33° C | 65% | 1011.9 hPa | 0 mm | - | - | - |
| 1777546323 | 23.33° C | 65% | 1012 hPa | 0 mm | - | - | - |
| 1777546263 | 23.33° C | 66% | 1011.9 hPa | 0 mm | - | - | - |
| 1777546203 | 23.33° C | 65% | 1011.9 hPa | 0 mm | - | - | - |
| 1777546144 | 23.33° C | 67% | 1012.1 hPa | 0 mm | - | - | - |
| 1777546084 | 23.33° C | 66% | 1012.1 hPa | 0 mm | - | - | - |
| 1777546024 | 23.33° C | 67% | 1011.8 hPa | 0 mm | - | - | - |
| 1777545964 | 22.78° C | 67% | 1011.9 hPa | 0 mm | - | - | - |
| 1777545904 | 22.78° C | 67% | 1012 hPa | 0 mm | - | - | - |
| 1777545844 | 22.78° C | 67% | 1012.1 hPa | 0 mm | - | - | - |
| 1777545784 | 22.78° C | 68% | 1012 hPa | 0 mm | - | - | - |
| 1777545724 | 22.22° C | 67% | 1012 hPa | 0 mm | - | - | - |
| 1777545664 | 23.33° C | 68% | 1012.1 hPa | 0 mm | - | - | - |
| 1777545604 | 23.33° C | 67% | 1012.2 hPa | 0 mm | - | - | - |
| 1777545544 | 23.33° C | 67% | 1012 hPa | 0 mm | - | - | - |
* Rain latest hour (hover to see other rain measurements)
** Current wind speed in m/s (hover to see current wind gust speed)